Location: Unspecified
(41.4057°N, 2.1753°E)
Time: 06:26:31
(UTC+02:00)

ISS - Visible Passes

Search period start: 23 October 2017 00:00
Search period end: 01 November 2017 23:00
Orbit: 401 x 408 km, 51.6° (Epoch: 23 October)

Date Brightness Start Highest point End Pass type
(mag) Time Alt. Az. Time Alt. Az. Time Alt. Az.
28 Oct -0.2 07:03:48 10° SE 07:03:59 10° SE 07:04:08 10° SE visible
29 Oct -2.7 06:44:29 10° SSW 06:47:36 46° SE 06:50:45 10° ENE visible
30 Oct -1.6 05:52:39 10° S 05:55:20 24° SE 05:58:01 10° ENE visible
31 Oct -0.9 05:02:41 12° SE 05:03:07 13° SE 05:04:38 10° ESE visible
31 Oct -3.9 06:35:56 10° WSW 06:39:11 72° NNW 06:42:26 10° NE visible
01 Nov -3.4 05:45:52 40° SSW 05:46:46 59° SE 05:49:59 10° ENE visible
